Location: USNO
(38.9242°N, 77.0663°W)
Time: 07:15:45
(UTC-04:00)

Daily predictions for brighter satellites

Satellite Brightness Start Highest point End
(mag) Time Altitude Azimuth Time Altitude Azimuth Time Altitude Azimuth
Spot 2 Rocket 4.3 19:43:35 10° SE 19:48:02 31° ENE 19:52:31 10° N
Tiangong 1 1.0 19:48:06 10° WNW 19:51:02 71° SSW 19:53:56 10° ESE
Abrixas 3.9 19:50:32 10° NW 19:52:56 24° NNE 19:55:21 10° E
Cosmos 1707 3.3 19:49:30 10° NNW 19:53:23 63° W 19:57:11 10° S
Cosmos 2082 Rocket 3.5 19:49:57 10° N 19:54:22 22° NE 19:58:43 10° ESE
Meteor 1-24 Rocket 3.7 19:49:04 10° N 19:54:34 65° E 20:00:14 10° SSE
Cosmos 1812 Rocket 3.5 19:50:16 10° S 19:54:40 77° E 19:59:04 10° N
Cosmos 1758 4.4 19:52:52 10° SE 19:56:01 23° E 19:59:12 10° NE
Lacrosse 5 2.1 19:50:59 10° SW 19:56:03 78° NW 20:01:09 10° NE
Cosmos 990 Rocket 4.1 19:51:08 10° SSW 19:56:23 89° WNW 20:01:40 10° NNE
Helios 1B rocket 4.0 19:54:54 10° NE 19:57:27 16° E 20:00:00 10° SE
FREGAT/IRIS 2.7 19:57:49 10° S 20:00:52 81° WSW 20:03:57 10° NNW
Cosmos 1821 Rocket 4.2 19:55:11 10° S 20:01:34 87° W 20:07:57 10° N
Lacrosse 4 Rocket 3.5 20:00:06 10° WSW 20:03:40 29° WNW 20:07:15 10° N
Cosmos 1953 3.3 20:00:33 10° SSE 20:03:58 26° E 20:07:24 10° NNE
Envisat 4.5 20:02:59 10° ESE 20:06:18 18° ENE 20:09:37 10° NNE
GP-B 4.4 20:04:28 10° SE 20:07:46 21° ENE 20:11:03 10° NNE
USA 186 3.1 20:08:21 12° ENE 20:08:21 12° ENE 20:09:16 10° NE
Helios 1A 4.2 20:06:56 10° ESE 20:10:14 23° ENE 20:13:34 10° NNE
CZ-3 Stage 3 4.4 19:05:21 10° WSW 20:12:20 63° S 20:20:18 14° ESE
Cosmos 1271 Rocket 4.4 20:10:47 10° SE 20:13:18 16° E 20:15:50 10° NE
Cosmos 1125 Rocket 3.8 20:08:54 10° S 20:13:45 42° ESE 20:18:39 10° NNE
Resurs 01 Rocket 1.7 20:09:35 10° SSE 20:13:53 56° ENE 20:18:14 10° N
Cosmos 1766 3.4 20:11:38 10° S 20:15:30 77° W 20:19:23 10° N
Cosmos 1605 Rocket 4.0 20:13:27 10° S 20:19:39 71° E 20:26:00 10° NNE
Geosat 4.2 20:16:09 10° NE 20:21:00 46° ESE 20:25:48 10° S
Cosmos-2242 4.1 20:18:38 10° SE 20:22:00 23° E 20:25:24 10° NE
Lacrosse 5 rocket 3.2 20:22:24 10° N 20:24:51 16° NNE 20:26:41 12° ENE
SeaSat 1 2.6 20:23:26 10° SSE 20:28:21 76° WSW 20:33:19 10° NNW
HJ-1C 4.0 20:25:05 10° S 20:28:26 59° W 20:31:49 10° NNW
Cosmos 1674 3.6 20:27:11 10° NNE 20:30:30 28° ENE 20:31:53 22° ESE
SAR-Lupe-4 4.0 20:31:34 19° SE 20:33:48 42° ENE 20:37:12 10° N
Cosmos 2123 Rocket 4.2 20:28:46 10° N 20:35:05 77° W 20:41:20 10° S
SL-27 R/B 4.2 20:34:18 10° NW 20:37:36 35° WSW 20:40:55 10° S
RESURS DK-1 3.7 20:35:51 10° NW 20:39:44 40° WSW 20:43:35 10° S
Cosmos 2344 4.3 20:34:06 10° SW 20:41:37 57° NW 20:50:07 10° NNE
CZ-2D R/B 3.2 20:38:45 10° SSE 20:42:36 88° E 20:46:31 10° NNW
Meteor 1-21 Rocket 4.3 20:38:57 10° N 20:44:46 66° E 20:50:38 10° SSE
CZ-3B DEB 4.0 20:35:52 10° WSW 20:46:20 43° NW 20:51:21 10° NNE
Meteor 1-29 3.2 20:43:20 10° NNE 20:46:40 43° E 20:48:19 25° SSE
In-Cosmos 22 4.5 20:41:49 10° NNW 20:47:05 65° W 20:52:17 10° S
Cosmos 1805 3.7 20:43:39 10° SSW 20:47:30 62° W 20:51:23 10° N
GPS 2-05 Rocket1 3.5 20:47:33 10° WSW 20:50:54 38° SSE 20:51:22 36° SSE
Cosmos 1818 3.5 20:45:39 10° NNW 20:51:07 85° ENE 20:54:41 22° SSE
ALOS 3.9 20:47:45 10° SSW 20:52:00 35° W 20:56:18 10° NNW
COSMOS 2487 2.5 20:49:02 10° N 20:52:33 55° ENE 20:53:15 45° ESE
SAR-Lupe-1 4.0 20:51:14 33° SE 20:52:38 64° ENE 20:56:12 10° N
Resurs 1-3 4.1 20:49:59 10° S 20:54:18 60° W 20:58:39 10° NNW
Cosmos 2061 Rocket 4.2 20:50:18 10° SSE 20:56:25 50° E 21:02:35 10° NNE
Cosmos 1269 Rocket 3.9 20:52:13 10° NNW 20:57:31 76° ENE 21:00:49 23° SSE
Meteor 1-4 Rocket 3.3 20:55:32 10° SSW 20:58:56 51° W 21:02:20 10° N
Timation 2 Rocket 3.9 20:56:17 10° NNW 21:02:33 63° ENE 21:05:26 32° SE
Cosmos 1833 Rocket 2.6 20:57:21 10° NNW 21:02:58 69° ENE 21:05:39 32° SE
Cosmos 1470 2.6 21:00:38 18° S 21:03:30 69° E 21:07:27 10° NNE
Cosmos 1408 Rocket 3.5 21:00:49 10° N 21:05:19 84° E 21:07:46 27° S
Cosmos 2278 Rocket 4.0 21:02:26 10° WSW 21:07:29 32° WNW 21:12:35 10° N
Spot 1 4.5 21:07:42 17° S 21:11:14 71° WSW 21:16:08 10° NNW
Cosmos 372 Rocket 4.1 21:06:17 10° SSW 21:11:22 74° WNW 21:16:32 10° NNE
CZ-4B DEB 3.0 21:12:02 62° NNW 21:12:02 62° NNW 21:14:42 10° NNW
Cosmos 1340 Rocket 2.8 21:08:17 10° N 21:12:09 59° ENE 21:12:09 59° ENE
Cosmos 1733 3.1 21:10:59 35° S 21:12:31 86° E 21:16:26 10° N
Cosmos 1459 Rocket 3.9 21:07:06 10° S 21:13:21 75° E 21:19:31 10° N
USA 215 3.1 21:11:24 10° NE 21:17:56 71° SE 21:24:26 10° SW
ATLAS 5 CENTAUR R/B 1.8 21:14:01 10° SW 21:18:40 81° NW 21:23:44 10° NNE
Cosmos 2173 Rocket 3.8 21:12:58 10° S 21:19:05 81° E 21:25:23 10° N
ISS -2.6 21:16:21 10° SW 21:18:24 36° SW 21:18:24 36° SW
Cosmos 158 Rocket 4.0 21:15:25 10° NNW 21:20:35 80° WSW 21:22:45 36° S
Cosmos 1867 4.5 21:20:29 10° SW 21:25:44 49° NW 21:31:04 10° NNE
Tiangong 1 3.9 21:25:28 10° WSW 21:25:52 11° SW 21:25:52 11° SW
Helios 1B rocket 3.9 21:29:04 10° N 21:32:54 37° WNW 21:36:41 10° SW
Meteor 1-11 4.4 21:31:41 10° N 21:36:37 50° ENE 21:36:37 50° ENE
Cosmos 494 Rocket 4.4 21:33:03 10° N 21:37:19 48° NE 21:37:19 48° NE
Cosmos 2082 Rocket 2.8 21:33:15 10° NNW 21:38:46 53° WSW 21:41:10 31° SSW
Lacrosse 5 4.3 21:36:12 10° WNW 21:39:45 19° NNW 21:43:20 10° NNE
Meteor 2-17 Rocket 4.3 21:40:14 29° S 21:43:38 90° E 21:49:49 10° N
SPOT 5 4.0 21:45:02 36° NE 21:45:02 36° NE 21:48:44 10° N
Envisat 3.6 21:42:59 35° SSW 21:44:52 53° W 21:49:51 10° NNW
Cosmos 1939 Rocket 3.6 21:45:32 52° W 21:45:32 52° W 21:49:29 10° NNW
Meteor 1-16 Rocket 4.2 21:44:17 59° S 21:45:27 83° E 21:51:25 10° N
USA 267 4.2 21:48:09 30° NE 21:49:37 33° NNE 21:55:18 10° NNW
ARGOS 4.1 21:51:33 34° NNE 21:51:33 34° NNE 21:55:00 10° N
H-2A R/B 3.8 21:52:51 20° NNE 21:52:51 20° NNE 21:55:03 10° NNE
Cosmos 2016 Rocket 4.0 21:47:02 25° SSW 21:50:52 79° W 21:57:04 10° N
Cosmos 1725 Rocket 3.8 21:59:08 82° ENE 21:59:08 82° ENE 22:05:15 10° N
ERS-1 Rocket 3.3 22:03:21 62° WNW 22:03:21 62° WNW 22:07:50 10° NNW
Lacrosse 5 rocket 3.3 22:00:42 10° NW 22:02:25 25° NW 22:02:25 25° NW
Tsikada Rocket 4.1 22:11:55 10° N 22:17:28 72° NNW 22:17:28 72° NNW
USA 215 4.4 22:54:44 10° NE 23:00:37 37° NNW 23:06:30 10° W
